{"data":{"norad_id":68613,"intl_designator":"2026-073M","name":"STARLINK-36187","alt_names":[],"object_type":"PAYLOAD","status":"ACTIVE","operator":null,"country":"US","launch_date":"2026-04-07","launch_site_code":"AFWTR","launch_vehicle":null,"mission":null,"orbit_class":"UNKNOWN","rcs_meters":null,"size_class":null,"mass_kg":null,"dimensions":null,"purposes":["comms"],"wikipedia_slug":null,"has_3d_model":false,"image_url":null,"decayed_at":null,"tle_current":{"epoch":"2026-05-25T04:00:03.998880Z","epoch_age_seconds":64132,"freshness":"FRESH","line1":"1 68613U 26073M   26145.16671295 -.00000916  00000+0 -15196-4 0  9990","line2":"2 68613  97.2852 344.6133 0001573  96.7081 102.0860 15.49143870  6016","mean_motion":15.4914387,"eccentricity":0.0001573,"inclination_deg":97.2852,"raan_deg":344.6133,"arg_perigee_deg":96.7081,"mean_anomaly_deg":102.086,"bstar":-1.5196e-5,"rev_number":601,"period_min":92.954568512736,"perigee_km":418.16005427273,"apogee_km":420.29850570442,"semimajor_km":6797.3662799886,"source":"CELESTRAK","updated_at":"2026-05-25T13:38:21.968698Z"}}}